[[{"header":{"parameterUnit":"m.s-1","parameterCategory":2,"la1":30.2991,"la2":30.254,"lo1":-89.0895,"lo2":-89.0444,"dy":0.0017,"dx":0.0017,"nx":28,"ny":28,"refTime":"2025-06-14T09:00:00:Z","depth":"0","parameterNumber":2,"parameterNumberName":"U-component_of_CURRENTS"},"data":[0,0,0,0,0,0,0,0,0,0,0,0,0,0,0,0,0,0,0,0,0,0,0,0,0,0,0,0,0,0,0,0,0,0,0,0,0,0,0,0,0,0,0,0,0,0,0,0,0,0,0,0,0,0,0,0,0,0,0.3423,0.3423,0,0.3395,0.3394,0.3394,0.3322,0.3321,0.332,0.3319,0.3305,0.3305,0.3306,0,0,0,0,0,0,0,0,0,0,0,0,0,0.3399,0.34,0.3423,0.3423,0.3423,0.3395,0.3394,0.3394,0.3322,0.3321,0.3319,0.3318,0.3304,0.3305,0.3306,0,0,0,0,0,0,0,0,0,0,0,0,0,0.3391,0.34,0.3423,0.3387,0.3383,0.3395,0.3394,0.3393,0.3323,0.3321,0.3319,0.3317,0.3304,0.3305,0.3306,0.3349,0,0,0.331,0.331,0,0,0,0,0,0,0,0,0.3391,0.3391,0.3392,0.3389,0.3386,0.3363,0.3381,0.338,0.3323,0.3342,0.3319,0.3317,0.3329,0.3328,0.3322,0.3348,0.3347,0.331,0.331,0.3311,0.3311,0,0,0,0,0,0,0,0.3392,0.3392,0.3408,0.3392,0.3388,0.3367,0.3363,0.338,0.3343,0.334,0.3336,0.3339,0.3327,0.3321,0.3321,0.3347,0.331,0.3311,0.3311,0.3312,0.3497,0.3501,0,0,0,0,0,0,0.3406,0.3393,0.3409,0.3408,0.3388,0.3369,0.3365,0.3369,0.3343,0.3338,0.3341,0.3336,0.332,0.332,0.332,0.3485,0.3311,0.3312,0.3313,0.3493,0.3498,0.3503,0,0,0,0,0,0,0.3405,0.3408,0.341,0.3402,0.3401,0.3372,0.3377,0.337,0.3368,0.3344,0.3338,0.3346,0.3318,0.3319,0.3361,0.3479,0.3312,0.3313,0.3488,0.3495,0.3501,0.3741,0,0,0,0,0,0,0.3405,0.3408,0.3415,0.3403,0.3402,0.344,0.3379,0.3371,0.3374,0.3367,0.3348,0.3343,0.3317,0.336,0.3362,0.3478,0.3314,0.3483,0.3491,0.3499,0.3727,0.3754,0.3778,0,0,0,0,0,0.3404,0.3423,0.3416,0.3418,0.3414,0.3443,0.3441,0.341,0.3376,0.3397,0.3386,0.3344,0.3413,0.3364,0.3365,0.3484,0.3479,0.3489,0.3498,0.3716,0.3749,0.3777,0,0,0,0,0,0,0.3403,0.3418,0.3409,0.3428,0.3447,0.3432,0.3444,0.3426,0.343,0.3426,0.3386,0.3385,0.3482,0.3437,0.3384,0.356,0.3445,0.3456,0.3611,0.3641,0.3666,0.3693,0.3315,0,0,0,0,0,0.3414,0.3437,0.3449,0.3465,0.348,0.3466,0.3471,0.3464,0.3466,0.3463,0.346,0.3469,0.3525,0.3539,0.3569,0.3647,0.3626,0.3727,0.3753,0.3774,0.3798,0.3864,0.3897,0.3534,0.3534,0.3534,0,0,0.3414,0.3429,0.3438,0.3469,0.3474,0.3537,0.3464,0.3495,0.3563,0.3467,0.3554,0.3562,0.3566,0.3675,0.3713,0.3648,0.387,0.3786,0.3805,0.3817,0.3877,0.3913,0.3944,0.3541,0.354,0.3539,0,0,0.3446,0.345,0.3488,0.3527,0.3565,0.3583,0.3602,0.3621,0.3643,0.3725,0.3701,0.3781,0.3817,0.3877,0.3903,0.4082,0.4009,0.408,0.4226,0.4291,0.4321,0.4348,0.4382,0.4409,0.4083,0.4084,0.4084,0,0.3442,0.3505,0.3504,0.357,0.3618,0.3618,0.3693,0.3739,0.3776,0.382,0.3784,0.3919,0.3938,0.4093,0.4171,0.415,0.4136,0.4113,0.4326,0.4351,0.4374,0.4402,0.4429,0.4097,0.4095,0.4094,0.4093,0,0.3518,0.3581,0.3615,0.3711,0.3761,0.3831,0.3902,0.3966,0.3998,0.404,0.4185,0.4219,0.4289,0.4338,0.4318,0.4507,0.4428,0.4359,0.4251,0.4426,0.4443,0.4467,0.4115,0.411,0.4106,0.4103,0,0,0.3473,0.3637,0.365,0.3727,0.3849,0.3896,0.4041,0.4164,0.4257,0.4333,0.4452,0.4609,0.4601,0.4632,0.463,0.4709,0.4894,0.4611,0.4608,0.4649,0.5009,0.4789,0.4792,0.4841,0.4847,0.4851,0.4961,0,0.3535,0.3704,0.3761,0.3925,0.4024,0.4091,0.4224,0.4336,0.4427,0.4547,0.463,0.4744,0.4719,0.4763,0.4854,0.4877,0.4965,0.4869,0.4829,0.4828,0.4616,0.4817,0.4559,0.462,0.4983,0.4987,0.499,0,0.3588,0.371,0.3886,0.4064,0.4105,0.4194,0.4386,0.4504,0.4679,0.4748,0.4871,0.4901,0.5072,0.4995,0.5157,0.508,0.5085,0.509,0.5092,0.4818,0.4654,0.45,0.4648,0.4582,0.5025,0.5023,0.502,0,0.359,0.3781,0.3931,0.3999,0.4206,0.4276,0.4375,0.4557,0.4662,0.4864,0.4934,0.5108,0.516,0.5245,0.5263,0.5219,0.5382,0.5309,0.5125,0.5107,0.4847,0.4796,0.4925,0.5438,0.5438,0.5437,0.5437,0,0.3655,0.3759,0.3936,0.403,0.418,0.4297,0.445,0.4586,0.4757,0.4865,0.5015,0.5097,0.5217,0.5293,0.5329,0.5295,0.5437,0.52,0.5144,0.492,0.4876,0.4763,0.4721,0.5441,0.544,0.544,0.5439,0,0.3641,0.3771,0.3941,0.4148,0.4193,0.4299,0.4453,0.4549,0.4733,0.487,0.4928,0.5106,0.5185,0.5274,0.5385,0.532,0.5197,0.5298,0.5009,0.4915,0.4616,0.4593,0.4455,0.4341,0.5129,0.5124,0.512,0,0.3661,0.3754,0.3984,0.4055,0.4137,0.4273,0.4338,0.4525,0.4606,0.4841,0.4877,0.501,0.5035,0.5125,0.5067,0.5083,0.5022,0.4841,0.4724,0.4612,0.455,0.4412,0.432,0.4498,0.4489,0.4482,0.4477,0,0.3693,0.3768,0.3919,0.4051,0.4128,0.4203,0.4299,0.4352,0.4534,0.4633,0.4734,0.4781,0.481,0.4674,0.4659,0.4645,0.4592,0.4687,0.4679,0.4168,0.3924,0.3778,0.4411,0.4414,0.4421,0.4425,0.4429,0.4431,0.3693,0.3787,0.3947,0.4022,0.4091,0.4079,0.4055,0.4131,0.4197,0.4236,0.4433,0.4369,0.4371,0.4276,0.4246,0.404,0.4088,0.3927,0.3946,0.3848,0.362,0.4089,0.394,0.3943,0.3946,0.3949,0.3951,0,0.3672,0.376,0.3871,0.3947,0.3883,0.3956,0.3963,0.3869,0.3805,0.3882,0.3899,0.3824,0.3677,0.3688,0.3539,0.3382,0.3263,0.3317,0.3144,0.3121,0.3645,0.3499,0.3114,0.3114,0.3114,0.3115,0.3115,0.3115,0.3688,0.3758,0.3784,0.3675,0.3665,0.3509,0.3443,0.3356,0.3343,0.3201,0.311,0.3151,0.3311,0.326,0.3095,0.3009,0.2877,0.2637,0.2758,0.3211,0.3272,0.3331,0.3191,0.2749,0.2748,0.2084,0.2079,0.2075]},{"header":{"parameterUnit":"m.s-1","parameterCategory":2,"la1":30.2991,"la2":30.254,"lo1":-89.0895,"lo2":-89.0444,"dy":0.0017,"dx":0.0017,"nx":28,"ny":28,"refTime":"2025-06-14T09:00:00:Z","depth":"0","parameterNumber":3,"parameterNumberName":"V-component_of_CURRENTS"},"data":[0,0,0,0,0,0,0,0,0,0,0,0,0,0,0,0,0,0,0,0,0,0,0,0,0,0,0,0,0,0,0,0,0,0,0,0,0,0,0,0,0,0,0,0,0,0,0,0,0,0,0,0,0,0,0,0,0,0,0.0078,0.0078,0,0.0034,0.0033,0.0033,0.0006,0.0006,0.0006,0.0007,-0.0045,-0.0047,-0.0048,0,0,0,0,0,0,0,0,0,0,0,0,0,0.0093,0.0093,0.0078,0.0078,0.0077,0.0034,0.0033,0.0032,0.0006,0.0006,0.0006,0.0007,-0.0045,-0.0047,-0.0048,0,0,0,0,0,0,0,0,0,0,0,0,0,0.007,0.0093,0.0078,0.006,0.0058,0.0034,0.0033,0.0032,0.0006,0.0006,0.0006,0.0007,-0.0044,-0.0046,-0.0049,-0.0063,0,0,-0.0055,-0.0056,0,0,0,0,0,0,0,0,0.0072,0.0069,0.0063,0.0062,0.0059,0.0027,0.002,0.0,0.0006,0.0024,0.0007,0.0007,-0.0021,-0.0025,-0.0036,-0.0066,-0.0068,-0.0055,-0.0057,-0.0057,-0.0058,0,0,0,0,0,0,0,0.0073,0.0071,0.0059,0.0063,0.0061,0.0039,0.0036,0.0015,0.0,0.0023,0.0021,0.0019,-0.0022,-0.0034,-0.0037,-0.0069,-0.0055,-0.0057,-0.0058,-0.0059,-0.007,-0.0069,0,0,0,0,0,0,0.0085,0.0073,0.006,0.0058,0.0068,0.0039,0.0035,0.0036,0.0001,-0.0004,0.0019,0.0018,-0.003,-0.0035,-0.0039,-0.0011,-0.0057,-0.0059,-0.0061,-0.0071,-0.007,-0.0069,0,0,0,0,0,0,0.0085,0.0084,0.0062,0.0065,0.0061,0.0039,0.004,0.0035,0.0027,-0.0002,-0.0007,0.0016,-0.003,-0.0036,-0.0051,-0.0015,-0.006,-0.0062,-0.0072,-0.007,-0.0069,0.0014,0,0,0,0,0,0,0.0086,0.0085,0.0087,0.0066,0.0062,0.0055,0.004,0.0034,0.0026,0.0025,-0.0006,-0.0011,-0.003,-0.0047,-0.0053,-0.0019,-0.0064,-0.0073,-0.0071,-0.007,0.001,0.0019,0.0026,0,0,0,0,0,0.0087,0.0096,0.0088,0.0086,0.0066,0.0055,0.0051,0.0034,0.0026,0.0026,0.0006,-0.001,-0.0038,-0.0049,-0.0055,-0.0021,-0.0074,-0.0072,-0.007,0.0007,0.0017,0.0025,0,0,0,0,0,0,0.0106,0.0093,0.0084,0.0089,0.0075,0.0052,0.0051,0.0037,0.002,0.0021,-0.0009,-0.0015,-0.0011,-0.0033,-0.0044,-0.0018,-0.0054,-0.0053,0.0007,0.0016,0.0023,0.0101,-0.0066,0,0,0,0,0,0.0111,0.0113,0.0096,0.01,0.0096,0.0073,0.0065,0.0055,0.0038,0.0031,0.0009,-0.0006,-0.0008,-0.0011,-0.0026,-0.002,-0.0022,0.0001,0.0008,0.0015,0.0074,0.0093,0.0109,-0.0061,-0.0061,-0.0061,0,0,0.0119,0.0113,0.0114,0.0104,0.0091,0.0102,0.0069,0.0065,0.0086,0.0028,0.0041,0.0013,-0.0003,0.0009,0.0011,-0.0004,0.0051,0.0018,0.0024,0.008,0.0098,0.0115,0.013,-0.006,-0.006,-0.006,0,0,0.0142,0.0132,0.0143,0.0139,0.0128,0.0121,0.0123,0.0102,0.0106,0.0102,0.0083,0.0092,0.0052,0.0078,0.0081,0.0124,0.0086,0.0096,0.0205,0.0221,0.0236,0.025,0.0223,0.0234,0.0105,0.0106,0.0106,0,0.0153,0.0168,0.0144,0.0157,0.017,0.0136,0.0163,0.0162,0.0141,0.0174,0.0118,0.0143,0.0107,0.0188,0.0194,0.015,0.0127,0.0168,0.0234,0.0248,0.0261,0.023,0.0241,0.011,0.0109,0.0109,0.0109,0,0.0186,0.02,0.0209,0.0222,0.0231,0.0245,0.0248,0.0267,0.0256,0.0264,0.0318,0.0279,0.0315,0.0286,0.0247,0.0333,0.0273,0.0236,0.0217,0.0283,0.0245,0.0255,0.0116,0.0115,0.0113,0.0112,0,0,0.0217,0.023,0.0237,0.027,0.0272,0.0296,0.0343,0.0398,0.0481,0.0442,0.0547,0.0524,0.0519,0.0526,0.0487,0.0495,0.0519,0.0404,0.0402,0.0389,0.052,0.0452,0.0454,0.0478,0.0481,0.0484,0.044,0,0.0257,0.0301,0.0302,0.0373,0.0404,0.0418,0.0482,0.0533,0.0565,0.0651,0.065,0.0708,0.0606,0.0632,0.063,0.0558,0.0557,0.0534,0.0451,0.0449,0.0392,0.047,0.0455,0.0414,0.0449,0.0451,0.0452,0,0.0303,0.0329,0.0391,0.0484,0.0506,0.0551,0.0692,0.075,0.0857,0.0886,0.0952,0.0938,0.0978,0.0864,0.0815,0.0794,0.0684,0.0607,0.0602,0.0538,0.0403,0.0363,0.043,0.0327,0.0467,0.0466,0.0465,0,0.0359,0.0415,0.0475,0.0495,0.0575,0.0644,0.0712,0.0827,0.0936,0.1055,0.1132,0.1159,0.1177,0.1083,0.0908,0.0862,0.0825,0.0737,0.0581,0.0571,0.0552,0.0537,0.0537,0.0725,0.0725,0.0725,0.0725,0,0.042,0.0481,0.0509,0.055,0.0689,0.0717,0.0904,0.0983,0.1127,0.1285,0.1266,0.1379,0.1229,0.1176,0.1,0.083,0.0894,0.0646,0.0586,0.0571,0.0559,0.046,0.0359,0.0723,0.0724,0.0724,0.0724,0,0.0493,0.0495,0.0583,0.0666,0.0718,0.0824,0.1025,0.1171,0.1266,0.1471,0.1513,0.1548,0.1471,0.1297,0.1133,0.0946,0.0703,0.0705,0.0675,0.0614,0.0359,0.026,0.0194,0.0133,0.0543,0.0542,0.0541,0,0.0537,0.0573,0.0679,0.077,0.082,0.098,0.1119,0.1244,0.1395,0.1583,0.1688,0.1675,0.1695,0.1423,0.1104,0.0815,0.0669,0.0592,0.0523,0.0393,0.024,0.0181,0.0131,0.0498,0.0497,0.0496,0.0495,0,0.0634,0.0655,0.0743,0.0912,0.105,0.1216,0.1399,0.1523,0.1679,0.1826,0.1983,0.201,0.1748,0.1468,0.1051,0.0834,0.0502,0.0555,0.0458,0.0262,0.0168,0.0063,0.0439,0.0484,0.0485,0.0486,0.0486,0.0487,0.0728,0.081,0.0921,0.1094,0.1249,0.1423,0.1564,0.1739,0.1951,0.2141,0.2163,0.2199,0.1797,0.1238,0.0945,0.0416,0.04,0.0251,0.0154,0.0119,0.0048,0.0383,0.0335,0.0335,0.0336,0.0336,0.0336,0,0.0849,0.0948,0.1114,0.1298,0.1461,0.1514,0.1745,0.1868,0.208,0.223,0.2341,0.2157,0.1664,0.1162,0.0447,0.0098,-0.0014,-0.0079,-0.0136,-0.0161,0.0183,0.0172,0.0044,0.0044,0.0044,0.0044,0.0044,0.0044,0.0931,0.1098,0.1173,0.1439,0.1565,0.175,0.1858,0.2036,0.2167,0.232,0.2328,0.2323,0.1961,0.0756,-0.0011,-0.0195,-0.0391,-0.0482,-0.0559,-0.031,-0.0284,-0.026,-0.0287,-0.0509,-0.051,-0.0831,-0.0835,-0.0838]}],[{"header":{"parameterUnit":"m.s-1","parameterCategory":2,"la1":30.2991,"la2":30.254,"lo1":-89.0895,"lo2":-89.0444,"dy":0.0017,"dx":0.0017,"nx":28,"ny":28,"refTime":"2025-06-14T09:00:00:Z","depth":"2","parameterNumber":2,"parameterNumberName":"U-component_of_CURRENTS"},"data":[0,0,0,0,0,0,0,0,0,0,0,0,0,0,0,0,0,0,0,0,0,0,0,0,0,0,0,0,0,0,0,0,0,0,0,0,0,0,0,0,0,0,0,0,0,0,0,0,0,0,0,0,0,0,0,0,0,0,0.2859,0.2859,0,0.2892,0.2892,0.2893,0.2885,0.2884,0.2883,0.2882,0.2877,0.2878,0.2879,0,0,0,0,0,0,0,0,0,0,0,0,0,0.2865,0.2865,0.2859,0.2859,0.2859,0.2892,0.2892,0.2893,0.2885,0.2884,0.2883,0.2882,0.2877,0.2878,0.2879,0,0,0,0,0,0,0,0,0,0,0,0,0,0.2881,0.2865,0.2859,0.2856,0.2856,0.2891,0.2892,0.2893,0.2886,0.2884,0.2883,0.2881,0.2876,0.2878,0.2879,0.2916,0,0,0.2882,0.2883,0,0,0,0,0,0,0,0,0.288,0.2881,0.2857,0.2856,0.2856,0.2879,0.2893,0.2898,0.2886,0.2879,0.2882,0.288,0.2873,0.2874,0.289,0.2916,0.2916,0.2883,0.2883,0.2884,0.2884,0,0,0,0,0,0,0,0.2878,0.288,0.2876,0.2857,0.2856,0.2879,0.2879,0.2894,0.2886,0.2879,0.2878,0.2875,0.2873,0.2889,0.289,0.2916,0.2883,0.2884,0.2884,0.2885,0.3047,0.305,0,0,0,0,0,0,0.2864,0.2878,0.2875,0.2877,0.286,0.2879,0.288,0.2877,0.2887,0.2886,0.2877,0.2875,0.2888,0.2888,0.2889,0.3045,0.2884,0.2885,0.2886,0.3044,0.3048,0.3052,0,0,0,0,0,0,0.2864,0.2863,0.2874,0.2875,0.2877,0.288,0.2877,0.2878,0.2906,0.2884,0.2883,0.2904,0.2886,0.2888,0.292,0.304,0.2885,0.2887,0.3039,0.3045,0.305,0.3285,0,0,0,0,0,0,0.2864,0.2863,0.2871,0.2874,0.2876,0.291,0.2878,0.288,0.2904,0.2902,0.2908,0.2905,0.2885,0.2918,0.2921,0.3039,0.2887,0.3035,0.3042,0.3048,0.3273,0.3298,0.3319,0,0,0,0,0,0.2864,0.2868,0.2872,0.2872,0.2882,0.2911,0.2916,0.2915,0.2907,0.2933,0.2934,0.2905,0.2964,0.2921,0.2924,0.3045,0.3031,0.304,0.3048,0.3262,0.3293,0.3318,0,0,0,0,0,0,0.2869,0.2867,0.2871,0.2873,0.2901,0.2908,0.2936,0.2933,0.2958,0.2963,0.2936,0.2935,0.3011,0.2984,0.2937,0.3108,0.3,0.3009,0.3163,0.3191,0.3214,0.3246,0.2888,0,0,0,0,0,0.2876,0.2883,0.2894,0.2902,0.2925,0.2941,0.2956,0.296,0.2972,0.2983,0.2989,0.3006,0.3049,0.3078,0.3088,0.318,0.3151,0.3261,0.3284,0.3304,0.3331,0.3367,0.3397,0.3078,0.3078,0.3078,0,0,0.2875,0.2881,0.2881,0.2906,0.2936,0.2976,0.2949,0.2989,0.3048,0.2979,0.3069,0.3074,0.3081,0.3184,0.322,0.3181,0.3385,0.3315,0.3332,0.3348,0.3379,0.341,0.3438,0.3084,0.3083,0.3082,0,0,0.2899,0.29,0.2931,0.2951,0.2996,0.3016,0.3033,0.3069,0.3123,0.3187,0.318,0.3256,0.3287,0.3358,0.3387,0.3543,0.3489,0.3552,0.3726,0.3763,0.3789,0.3812,0.3838,0.3862,0.3586,0.3587,0.3587,0,0.2908,0.2942,0.2948,0.2987,0.3018,0.3039,0.3095,0.3157,0.32,0.3276,0.3233,0.3371,0.3384,0.3558,0.3634,0.3607,0.3596,0.3626,0.3795,0.3817,0.3837,0.3857,0.388,0.3599,0.3598,0.3596,0.3595,0,0.2958,0.2989,0.3016,0.3076,0.3112,0.3163,0.3234,0.3311,0.3365,0.3425,0.3589,0.3623,0.3707,0.3758,0.3754,0.3945,0.3882,0.3804,0.3729,0.3884,0.3894,0.3914,0.3617,0.3612,0.3609,0.3605,0,0,0.2949,0.3043,0.3043,0.3098,0.3166,0.3201,0.3336,0.3479,0.3591,0.3675,0.3825,0.3975,0.4003,0.404,0.4072,0.4154,0.4312,0.4071,0.4067,0.4106,0.4391,0.4161,0.4159,0.4257,0.4261,0.4264,0.4351,0,0.3001,0.3092,0.3128,0.3222,0.3283,0.3351,0.3487,0.3609,0.3714,0.3857,0.3985,0.4105,0.4112,0.4172,0.4271,0.4289,0.4371,0.4296,0.4227,0.4225,0.4009,0.4177,0.3871,0.3904,0.4369,0.4372,0.4374,0,0.3023,0.3092,0.3204,0.3339,0.338,0.3449,0.3649,0.3769,0.3981,0.407,0.4219,0.4261,0.4465,0.4383,0.4551,0.4498,0.4482,0.4479,0.4479,0.4195,0.4031,0.3819,0.3921,0.4405,0.4403,0.4401,0.4399,0,0.3014,0.3126,0.3233,0.3262,0.343,0.3533,0.3644,0.3846,0.4,0.4193,0.4267,0.4469,0.454,0.4606,0.4628,0.4594,0.4731,0.4653,0.4439,0.4421,0.4111,0.4057,0.4738,0.4738,0.4738,0.4738,0.4738,0,0.3058,0.3111,0.3238,0.3296,0.3461,0.3556,0.3762,0.3906,0.412,0.4257,0.4377,0.4461,0.4589,0.4659,0.4682,0.4632,0.4769,0.4509,0.4442,0.4182,0.4135,0.4509,0.4481,0.4741,0.474,0.474,0.4739,0,0.3044,0.3121,0.3211,0.3388,0.3468,0.3569,0.3823,0.3934,0.4145,0.4301,0.4357,0.4507,0.4544,0.4637,0.4708,0.4644,0.4646,0.4572,0.4256,0.4149,0.4305,0.4289,0.4371,0.4364,0.4358,0.4353,0.4348,0,0.3053,0.3107,0.3258,0.3318,0.3412,0.3584,0.3701,0.3941,0.4027,0.4279,0.4307,0.4413,0.4385,0.4436,0.4375,0.4363,0.4482,0.4024,0.3895,0.4348,0.4276,0.4269,0.4261,0.3606,0.3596,0.3588,0.3581,0,0.3047,0.3079,0.3153,0.3301,0.3396,0.3522,0.3683,0.3759,0.397,0.4058,0.4112,0.4123,0.4134,0.393,0.39,0.3854,0.4011,0.3846,0.4441,0.3709,0.3623,0.3552,0.3571,0.3509,0.3516,0.3521,0.3525,0.3528,0.3005,0.3017,0.3108,0.3232,0.3319,0.3387,0.3412,0.3492,0.3568,0.3602,0.3762,0.3645,0.3679,0.3415,0.3316,0.3253,0.3508,0.3368,0.3396,0.3432,0.3291,0.3194,0.2976,0.298,0.2984,0.2987,0.299,0,0.2968,0.2997,0.3056,0.3114,0.31,0.3259,0.3332,0.3244,0.3142,0.3211,0.3199,0.2916,0.276,0.2818,0.2601,0.257,0.2596,0.2464,0.2498,0.2571,0.2636,0.2457,0.192,0.1916,0.1913,0.191,0,0,0.2942,0.2942,0.294,0.2868,0.2916,0.2847,0.284,0.2715,0.2703,0.2524,0.2457,0.2621,0.2724,0.2288,0.2234,0.2038,0.2291,0.1955,0.282,0.2935,0.2995,0.3168,0.2974,0,0,0,0,0]},{"header":{"parameterUnit":"m.s-1","parameterCategory":2,"la1":30.2991,"la2":30.254,"lo1":-89.0895,"lo2":-89.0444,"dy":0.0017,"dx":0.0017,"nx":28,"ny":28,"refTime":"2025-06-14T09:00:00:Z","depth":"2","parameterNumber":3,"parameterNumberName":"V-component_of_CURRENTS"},"data":[0,0,0,0,0,0,0,0,0,0,0,0,0,0,0,0,0,0,0,0,0,0,0,0,0,0,0,0,0,0,0,0,0,0,0,0,0,0,0,0,0,0,0,0,0,0,0,0,0,0,0,0,0,0,0,0,0,0,-0.0073,-0.0073,0,-0.0102,-0.0103,-0.0103,-0.0121,-0.0121,-0.0121,-0.0121,-0.0168,-0.017,-0.0171,0,0,0,0,0,0,0,0,0,0,0,0,0,-0.0053,-0.0053,-0.0073,-0.0073,-0.0073,-0.0102,-0.0103,-0.0103,-0.0121,-0.0121,-0.0121,-0.0121,-0.0168,-0.0169,-0.0171,0,0,0,0,0,0,0,0,0,0,0,0,0,-0.0071,-0.0053,-0.0073,-0.0085,-0.0086,-0.0102,-0.0103,-0.0103,-0.0121,-0.0121,-0.0121,-0.0121,-0.0167,-0.0169,-0.0171,-0.0183,0,0,-0.0177,-0.0178,0,0,0,0,0,0,0,0,-0.007,-0.0071,-0.0083,-0.0084,-0.0086,-0.0107,-0.0113,-0.0131,-0.0121,-0.0109,-0.0121,-0.0121,-0.0149,-0.0152,-0.0159,-0.0185,-0.0187,-0.0177,-0.0178,-0.0179,-0.018,0,0,0,0,0,0,0,-0.0068,-0.007,-0.0085,-0.0083,-0.0085,-0.0096,-0.0099,-0.0117,-0.013,-0.011,-0.0111,-0.0113,-0.015,-0.0157,-0.016,-0.0188,-0.0177,-0.0179,-0.018,-0.0181,-0.0199,-0.0198,0,0,0,0,0,0,-0.0062,-0.0069,-0.0084,-0.0086,-0.0076,-0.0096,-0.0099,-0.0101,-0.0129,-0.0133,-0.0113,-0.0114,-0.0154,-0.0158,-0.0162,-0.0148,-0.0179,-0.0181,-0.0182,-0.0199,-0.0199,-0.0198,0,0,0,0,0,0,-0.0061,-0.0063,-0.0083,-0.0078,-0.0081,-0.0096,-0.0099,-0.0102,-0.0105,-0.0131,-0.0135,-0.0112,-0.0154,-0.0159,-0.0172,-0.0152,-0.0182,-0.0183,-0.02,-0.0199,-0.0198,-0.014,0,0,0,0,0,0,-0.006,-0.0062,-0.0061,-0.0077,-0.0081,-0.0084,-0.0099,-0.0102,-0.0106,-0.0107,-0.0132,-0.0137,-0.0154,-0.0169,-0.0174,-0.0155,-0.0185,-0.0201,-0.02,-0.0198,-0.0143,-0.0137,-0.0132,0,0,0,0,0,-0.006,-0.0053,-0.0061,-0.0062,-0.0078,-0.0083,-0.0086,-0.0098,-0.0105,-0.0102,-0.0121,-0.0135,-0.0164,-0.0171,-0.0176,-0.0157,-0.0201,-0.02,-0.0199,-0.0145,-0.0138,-0.0132,0,0,0,0,0,0,-0.004,-0.0054,-0.0063,-0.0061,-0.0068,-0.0086,-0.0083,-0.0094,-0.0107,-0.0108,-0.0134,-0.014,-0.0141,-0.016,-0.0166,-0.0158,-0.0183,-0.0182,-0.014,-0.0134,-0.0129,-0.0057,-0.0186,0,0,0,0,0,-0.0036,-0.0037,-0.0051,-0.0048,-0.005,-0.0067,-0.007,-0.0079,-0.0093,-0.0098,-0.0117,-0.0133,-0.0141,-0.0146,-0.016,-0.0161,-0.0164,-0.015,-0.0145,-0.0141,-0.0086,-0.0084,-0.0073,-0.0193,-0.0193,-0.0193,0,0,-0.0029,-0.0035,-0.0036,-0.0044,-0.0051,-0.0044,-0.0068,-0.0069,-0.0063,-0.0102,-0.0101,-0.0119,-0.0138,-0.0135,-0.0137,-0.0147,-0.0118,-0.0139,-0.0135,-0.0082,-0.0081,-0.0069,-0.0058,-0.0192,-0.0192,-0.0192,0,0,-0.0004,-0.0018,-0.0006,-0.0011,-0.0018,-0.0027,-0.0024,-0.004,-0.0046,-0.0061,-0.0071,-0.0061,-0.0107,-0.0083,-0.0086,-0.0058,-0.0093,-0.0084,0.0003,0.0003,0.0014,0.0024,-0.0006,0.0001,-0.0079,-0.0079,-0.0079,0,0.0009,0.0022,-0.0002,0.001,0.002,-0.0014,0.0012,-0.0006,-0.0025,0.0005,-0.0056,-0.0033,-0.0068,0.0001,-0.0001,-0.0039,-0.0063,-0.0022,0.0013,0.0022,0.0031,-0.0001,0.0006,-0.0076,-0.0076,-0.0077,-0.0077,0,0.0042,0.0053,0.0062,0.0069,0.0074,0.0086,0.0069,0.0077,0.0053,0.0057,0.0099,0.0058,0.0097,0.0064,0.0029,0.0097,0.0048,0.0014,0.0001,0.0047,0.0009,0.0015,-0.0072,-0.0073,-0.0074,-0.0074,0,0,0.0077,0.0086,0.0091,0.0126,0.011,0.0135,0.0146,0.0187,0.0253,0.0201,0.0287,0.0253,0.0265,0.0267,0.0238,0.0229,0.0228,0.0148,0.0146,0.0129,0.0202,0.014,0.0139,0.0185,0.0187,0.0189,0.0135,0,0.012,0.0168,0.0157,0.0221,0.0255,0.0245,0.028,0.0311,0.032,0.0384,0.0369,0.0417,0.0329,0.0356,0.0338,0.027,0.0254,0.0246,0.0155,0.0153,0.0101,0.0149,0.0166,0.0119,0.0141,0.0142,0.0142,0,0.0164,0.0198,0.026,0.0343,0.0362,0.0389,0.0496,0.0522,0.059,0.0605,0.0658,0.064,0.0663,0.055,0.0485,0.0475,0.0362,0.028,0.0275,0.0221,0.0105,0.0084,0.0128,0.0152,0.0151,0.015,0.015,0,0.0228,0.0286,0.035,0.0364,0.0431,0.0482,0.0524,0.0601,0.0687,0.0759,0.0831,0.084,0.0848,0.0735,0.0559,0.052,0.045,0.0373,0.0219,0.0211,0.0219,0.0209,0.0336,0.0336,0.0336,0.0336,0.0336,0,0.0286,0.035,0.0389,0.0427,0.056,0.0562,0.072,0.0767,0.0872,0.1011,0.0962,0.1052,0.0888,0.082,0.0637,0.0456,0.0511,0.0272,0.0215,0.0231,0.0223,0.0256,0.0247,0.0334,0.0335,0.0335,0.0335,0,0.0348,0.0364,0.046,0.0541,0.0591,0.0679,0.0844,0.0965,0.1027,0.1198,0.1228,0.1223,0.1113,0.0933,0.074,0.0564,0.0389,0.0304,0.0318,0.0265,0.0124,0.0119,0.0145,0.0143,0.0141,0.0139,0.0138,0,0.0384,0.0428,0.0549,0.0646,0.0688,0.0828,0.0946,0.1039,0.1162,0.1306,0.139,0.1343,0.1314,0.1007,0.0711,0.0415,0.0367,0.0217,0.016,0.0174,0.0115,0.0113,0.011,0.0169,0.0168,0.0167,0.0167,0,0.0466,0.0496,0.0588,0.0766,0.0897,0.1057,0.1205,0.1322,0.1434,0.1548,0.1642,0.162,0.1347,0.1049,0.0644,0.0436,0.0266,0.0189,0.0242,0.0208,0.0191,0.0134,0.0133,0.016,0.0161,0.0161,0.0162,0.0162,0.0546,0.0625,0.0742,0.0924,0.1076,0.1239,0.1363,0.1499,0.1663,0.1786,0.1775,0.1717,0.1416,0.0877,0.0549,0.0205,0.0216,0.0068,0.0073,0.0078,0.0085,0.0065,0.001,0.001,0.001,0.001,0.001,0,0.0653,0.0747,0.091,0.11,0.125,0.1312,0.1521,0.1605,0.1748,0.1835,0.1871,0.1565,0.124,0.0891,0.0387,0.0077,0.0065,-0.004,0.0023,0.0031,0.0038,0.0045,-0.0042,-0.0043,-0.0044,-0.0045,0,0,0.0725,0.0881,0.0954,0.1207,0.1334,0.15,0.16,0.1706,0.1789,0.1824,0.1791,0.1724,0.1326,0.0944,0.0541,0.0253,0.0205,0.0183,0.0256,0.0385,0.0396,0.0129,0.0152,0,0,0,0,0]}],[{"header":{"parameterUnit":"m.s-1","parameterCategory":2,"la1":30.2991,"la2":30.254,"lo1":-89.0895,"lo2":-89.0444,"dy":0.0017,"dx":0.0017,"nx":28,"ny":28,"refTime":"2025-06-14T09:00:00:Z","depth":"4","parameterNumber":2,"parameterNumberName":"U-component_of_CURRENTS"},"data":[0,0,0,0,0,0,0,0,0,0,0,0,0,0,0,0,0,0,0,0,0,0,0,0,0,0,0,0,0,0,0,0,0,0,0,0,0,0,0,0,0,0,0,0,0,0,0,0,0,0,0,0,0,0,0,0,0,0,0.1651,0.1651,0,0.1673,0.1673,0.1673,0.1738,0.1739,0.1741,0.1742,0.179,0.179,0.1789,0,0,0,0,0,0,0,0,0,0,0,0,0,0.1638,0.1638,0.1651,0.1651,0.1652,0.1673,0.1673,0.1673,0.1737,0.1739,0.1741,0.1743,0.179,0.179,0.1789,0,0,0,0,0,0,0,0,0,0,0,0,0,0.1648,0.1638,0.1651,0.1688,0.1691,0.1672,0.1673,0.1673,0.1737,0.1739,0.1742,0.1744,0.179,0.179,0.1789,0.174,0,0,0.1788,0.1788,0,0,0,0,0,0,0,0,0.1648,0.1649,0.1682,0.1685,0.1689,0.1706,0.1686,0.1697,0.1736,0.1718,0.1742,0.1745,0.1763,0.1765,0.1762,0.1742,0.1745,0.1788,0.1788,0.1788,0.1788,0,0,0,0,0,0,0,0.1647,0.1648,0.1658,0.1682,0.1687,0.1694,0.1698,0.1688,0.1726,0.172,0.1725,0.1729,0.1766,0.1762,0.1763,0.1745,0.1788,0.1788,0.1788,0.1788,0.1824,0.1825,0,0,0,0,0,0,0.1646,0.1647,0.1657,0.1659,0.1676,0.1692,0.1697,0.1697,0.1726,0.1733,0.1727,0.1732,0.1761,0.1764,0.1765,0.1803,0.1788,0.1788,0.1788,0.1823,0.1824,0.1825,0,0,0,0,0,0,0.1646,0.1647,0.1656,0.1655,0.1657,0.169,0.169,0.1696,0.1734,0.1732,0.174,0.1763,0.1763,0.1766,0.1799,0.1802,0.1788,0.1787,0.1821,0.1823,0.1825,0.1818,0,0,0,0,0,0,0.1645,0.1646,0.1664,0.1655,0.1657,0.1671,0.1688,0.1695,0.1731,0.1739,0.1764,0.1769,0.1765,0.18,0.1799,0.1801,0.1787,0.182,0.1822,0.1824,0.1816,0.1819,0.1821,0,0,0,0,0,0.1645,0.1649,0.1664,0.1667,0.1674,0.1671,0.1674,0.1704,0.1731,0.1747,0.1775,0.177,0.1813,0.18,0.1799,0.1801,0.1819,0.1822,0.1824,0.1815,0.1818,0.1821,0,0,0,0,0,0,0.1657,0.1655,0.1673,0.168,0.169,0.1684,0.1698,0.172,0.1751,0.1771,0.1778,0.1784,0.1821,0.1815,0.1801,0.1823,0.1817,0.1819,0.1811,0.1814,0.1816,0.1914,0.1787,0,0,0,0,0,0.1665,0.167,0.1672,0.1683,0.1685,0.1699,0.171,0.1731,0.1747,0.1766,0.1785,0.1806,0.182,0.1824,0.184,0.1836,0.1895,0.1842,0.1844,0.1846,0.1928,0.2065,0.2089,0.1834,0.1834,0.1834,0,0,0.1677,0.1675,0.1683,0.1687,0.1693,0.1684,0.1712,0.1732,0.1736,0.1762,0.1789,0.1823,0.1828,0.1841,0.1854,0.1838,0.192,0.1849,0.185,0.1934,0.2071,0.2096,0.2119,0.1835,0.1835,0.1835,0,0,0.1669,0.1695,0.1685,0.1681,0.1694,0.1703,0.1717,0.1733,0.1757,0.1779,0.181,0.1884,0.1859,0.19,0.1903,0.1934,0.1943,0.1899,0.197,0.2098,0.2122,0.2144,0.2127,0.2148,0.1881,0.1881,0.1881,0,0.169,0.1667,0.1686,0.1659,0.1664,0.1711,0.1701,0.1713,0.1748,0.1799,0.1794,0.1905,0.1905,0.1971,0.1981,0.1946,0.1975,0.1944,0.2105,0.2129,0.2152,0.2131,0.2155,0.1881,0.1881,0.1881,0.1881,0,0.1641,0.1642,0.1632,0.1619,0.1633,0.1634,0.1651,0.1699,0.1745,0.1789,0.1903,0.1943,0.2039,0.2011,0.1998,0.2141,0.2086,0.2103,0.2101,0.2178,0.2148,0.2172,0.1881,0.1881,0.1881,0.1881,0,0,0.1641,0.1608,0.1609,0.1608,0.1615,0.1625,0.1651,0.1716,0.1793,0.1855,0.1983,0.2027,0.2136,0.2158,0.217,0.2268,0.2389,0.2253,0.226,0.2242,0.2579,0.2364,0.2369,0.2434,0.2442,0.2448,0.2447,0,0.1606,0.1548,0.1557,0.1551,0.1529,0.1595,0.163,0.1709,0.1795,0.1932,0.2048,0.2186,0.2151,0.2248,0.2336,0.2397,0.2476,0.2383,0.2509,0.2512,0.232,0.2402,0.2471,0.2466,0.2471,0.2476,0.2479,0,0.1541,0.152,0.1479,0.1534,0.1542,0.1578,0.1708,0.1751,0.194,0.2028,0.2209,0.2327,0.249,0.2489,0.264,0.2574,0.2616,0.2646,0.2647,0.2503,0.2351,0.2407,0.2524,0.252,0.2517,0.2514,0.2511,0,0.1483,0.1484,0.146,0.1453,0.1506,0.1574,0.1665,0.1817,0.1896,0.2169,0.2286,0.2487,0.2623,0.2736,0.2779,0.2745,0.2933,0.2878,0.2716,0.2692,0.2887,0.2865,0.308,0.308,0.308,0.308,0.308,0,0.1398,0.1397,0.1454,0.1425,0.151,0.1576,0.172,0.1839,0.2039,0.2162,0.2377,0.2506,0.2722,0.283,0.2849,0.2818,0.2982,0.2777,0.273,0.2857,0.2834,0.2895,0.2873,0.308,0.308,0.308,0.308,0,0.1302,0.1307,0.1308,0.1399,0.1462,0.1536,0.1749,0.1856,0.2041,0.2218,0.2335,0.2568,0.2692,0.2808,0.2981,0.2873,0.2905,0.2879,0.294,0.2888,0.2538,0.2516,0.2666,0.266,0.2654,0.265,0.2646,0,0.1229,0.1203,0.1295,0.134,0.1397,0.1541,0.1655,0.1858,0.1955,0.2204,0.2274,0.2512,0.264,0.2647,0.2793,0.281,0.281,0.2768,0.2738,0.2582,0.2522,0.2508,0.2494,0.2637,0.2636,0.2635,0.2633,0,0.1118,0.1161,0.1173,0.1275,0.1388,0.1487,0.166,0.1713,0.1925,0.2099,0.2202,0.2312,0.2435,0.2536,0.2597,0.2608,0.2758,0.271,0.2721,0.2693,0.2549,0.2491,0.2483,0.2614,0.2617,0.2619,0.262,0,0.1079,0.1079,0.1125,0.1218,0.134,0.1406,0.1502,0.1623,0.1733,0.1979,0.2007,0.2216,0.2409,0.2431,0.2468,0.2479,0.244,0.2354,0.2382,0.2405,0.2328,0.2106,0.2041,0,0,0,0,0,0.1038,0.1029,0.1089,0.1152,0.1265,0.1343,0.1493,0.1579,0.1767,0.1786,0.1884,0.1996,0.2089,0.2199,0.216,0.2343,0.2443,0.2284,0.2356,0.251,0.2531,0.2469,0,0,0,0,0,0,0.1005,0.1029,0.1046,0.1091,0.1139,0.1244,0.1333,0.1445,0.1458,0.1652,0.1725,0.1863,0.1996,0.21,0.2124,0.2151,0.2149,0.2405,0.2399,0.2497,0.2517,0.2535,0.2478,0,0,0,0,0]},{"header":{"parameterUnit":"m.s-1","parameterCategory":2,"la1":30.2991,"la2":30.254,"lo1":-89.0895,"lo2":-89.0444,"dy":0.0017,"dx":0.0017,"nx":28,"ny":28,"refTime":"2025-06-14T09:00:00:Z","depth":"4","parameterNumber":3,"parameterNumberName":"V-component_of_CURRENTS"},"data":[0,0,0,0,0,0,0,0,0,0,0,0,0,0,0,0,0,0,0,0,0,0,0,0,0,0,0,0,0,0,0,0,0,0,0,0,0,0,0,0,0,0,0,0,0,0,0,0,0,0,0,0,0,0,0,0,0,0,-0.0057,-0.0057,0,-0.0068,-0.0068,-0.0068,-0.009,-0.009,-0.009,-0.0091,-0.0108,-0.0108,-0.0108,0,0,0,0,0,0,0,0,0,0,0,0,0,-0.0049,-0.0049,-0.0057,-0.0057,-0.0057,-0.0068,-0.0068,-0.0068,-0.0089,-0.009,-0.0091,-0.0091,-0.0108,-0.0108,-0.0108,0,0,0,0,0,0,0,0,0,0,0,0,0,-0.0055,-0.0049,-0.0057,-0.0069,-0.007,-0.0068,-0.0068,-0.0068,-0.0089,-0.009,-0.0091,-0.0091,-0.0108,-0.0108,-0.0108,-0.0096,0,0,-0.0109,-0.0109,0,0,0,0,0,0,0,0,-0.0055,-0.0055,-0.0067,-0.0068,-0.0069,-0.0078,-0.0072,-0.0078,-0.0089,-0.0082,-0.0091,-0.0092,-0.0098,-0.0099,-0.01,-0.0097,-0.0098,-0.0109,-0.0109,-0.0109,-0.0109,0,0,0,0,0,0,0,-0.0054,-0.0055,-0.0061,-0.0067,-0.0069,-0.0072,-0.0074,-0.0073,-0.0086,-0.0083,-0.0084,-0.0085,-0.0099,-0.0099,-0.01,-0.0098,-0.0109,-0.0109,-0.0109,-0.0109,-0.0088,-0.0087,0,0,0,0,0,0,-0.0053,-0.0054,-0.0061,-0.0061,-0.0064,-0.0072,-0.0074,-0.0075,-0.0086,-0.0089,-0.0085,-0.0086,-0.0099,-0.01,-0.0101,-0.0075,-0.0109,-0.0109,-0.0109,-0.0088,-0.0087,-0.0087,0,0,0,0,0,0,-0.0052,-0.0053,-0.006,-0.0058,-0.006,-0.0071,-0.0072,-0.0074,-0.0078,-0.0088,-0.0091,-0.0086,-0.01,-0.0101,-0.0092,-0.0076,-0.0109,-0.0109,-0.0089,-0.0088,-0.0087,-0.0031,0,0,0,0,0,0,-0.0052,-0.0053,-0.0052,-0.0058,-0.006,-0.0048,-0.0072,-0.0074,-0.0077,-0.0079,-0.009,-0.0092,-0.01,-0.0092,-0.0092,-0.0077,-0.0109,-0.009,-0.0089,-0.0087,-0.0033,-0.0028,-0.0023,0,0,0,0,0,-0.0052,-0.0044,-0.0052,-0.0053,-0.0058,-0.0047,-0.0048,-0.0059,-0.0077,-0.0067,-0.0076,-0.0092,-0.0085,-0.0091,-0.0092,-0.0076,-0.009,-0.0089,-0.0088,-0.0036,-0.0029,-0.0024,0,0,0,0,0,0,-0.0039,-0.0046,-0.0054,-0.005,-0.0045,-0.0051,-0.0045,-0.0057,-0.0057,-0.0063,-0.0079,-0.0081,-0.0071,-0.0081,-0.0087,-0.0068,-0.0092,-0.0091,-0.0053,-0.0046,-0.0042,-0.0041,-0.0109,0,0,0,0,0,-0.0036,-0.0034,-0.0037,-0.0032,-0.0029,-0.0038,-0.0038,-0.0044,-0.0046,-0.0048,-0.0054,-0.0063,-0.0065,-0.0061,-0.0065,-0.0048,-0.0078,-0.0041,-0.0036,-0.0032,-0.0032,-0.0062,-0.0059,-0.0082,-0.0082,-0.0082,0,0,-0.003,-0.0033,-0.0033,-0.0029,-0.0029,-0.0004,-0.0039,-0.0032,-0.0014,-0.0049,-0.0027,-0.0046,-0.0058,-0.0042,-0.0038,-0.0047,-0.0041,-0.003,-0.0026,-0.0029,-0.006,-0.0058,-0.0056,-0.0081,-0.0081,-0.0082,0,0,-0.0001,-0.0018,0.0002,0.0013,0.0018,0.0015,0.0019,0.0018,0.0013,0.0032,0.0004,-0.0006,0.0006,-0.0007,-0.0011,0.0018,-0.0017,0.002,0.0053,0.0025,0.0026,0.0027,-0.0008,-0.001,0.0027,0.0027,0.0028,0,0.0008,0.0034,0.0012,0.0045,0.006,0.0029,0.0067,0.0062,0.0064,0.006,0.005,0.0038,0.0022,0.0027,0.0035,0.0029,0.0006,0.0033,0.0031,0.0031,0.0031,-0.0005,-0.0008,0.003,0.003,0.003,0.0029,0,0.006,0.0087,0.0103,0.0133,0.0143,0.0169,0.0163,0.0163,0.0149,0.0141,0.0136,0.0109,0.0101,0.0092,0.0076,0.007,0.005,0.0037,0.0016,0.0037,-0.0002,-0.0007,0.0034,0.0033,0.0033,0.0032,0,0,0.0072,0.0129,0.0136,0.0175,0.0192,0.0211,0.0228,0.0236,0.0243,0.0228,0.024,0.0213,0.0178,0.017,0.0137,0.0109,0.0083,0.0078,0.0076,0.0044,0.0017,0.002,0.0014,0.0072,0.0071,0.0071,-0.001,0,0.0126,0.021,0.0215,0.0295,0.0341,0.032,0.0341,0.0336,0.0319,0.0322,0.0269,0.0276,0.0216,0.0217,0.0173,0.0102,0.0073,0.0105,0.0001,-0.0003,-0.0002,0.001,0.007,-0.0014,-0.0015,-0.0016,-0.0017,0,0.0181,0.0233,0.0324,0.0386,0.0399,0.0435,0.0448,0.0467,0.0441,0.0428,0.0399,0.0362,0.0312,0.0272,0.0147,0.0171,0.0102,0.0043,0.0038,0.0017,-0.0008,-0.004,-0.0026,-0.0025,-0.0025,-0.0024,-0.0023,0,0.0221,0.0307,0.0383,0.041,0.047,0.0493,0.0512,0.0499,0.0516,0.0505,0.051,0.0435,0.0415,0.0305,0.0169,0.0164,0.0032,0.0012,-0.0053,-0.0055,-0.0059,-0.006,-0.006,-0.006,-0.006,-0.006,-0.006,0,0.0282,0.0344,0.0413,0.0466,0.0541,0.0552,0.0608,0.061,0.0613,0.0638,0.0575,0.0569,0.0425,0.0328,0.0195,0.0049,0.0049,-0.0049,-0.0072,-0.0033,-0.003,-0.0063,-0.0062,-0.0063,-0.0062,-0.0062,-0.0061,0,0.0323,0.0371,0.0471,0.0549,0.0577,0.0631,0.0691,0.0715,0.0714,0.0745,0.0754,0.0673,0.0551,0.039,0.0217,0.01,-0.0044,-0.0087,-0.0035,-0.0054,-0.0121,-0.0116,-0.0172,-0.0173,-0.0173,-0.0174,-0.0174,0,0.035,0.0409,0.0537,0.0592,0.0636,0.071,0.0751,0.0775,0.0799,0.0799,0.0813,0.073,0.0654,0.0402,0.023,-0.0011,-0.0042,-0.0122,-0.0126,-0.0114,-0.0131,-0.0126,-0.0121,-0.0175,-0.0175,-0.0175,-0.0175,0,0.0392,0.0442,0.0528,0.0647,0.0718,0.0795,0.0856,0.0884,0.09,0.0906,0.087,0.0752,0.0619,0.0418,0.0245,0.0066,-0.0081,-0.0128,-0.0128,-0.0133,-0.0118,-0.0133,-0.0127,-0.0177,-0.0176,-0.0176,-0.0176,0,0.0418,0.0477,0.0583,0.0687,0.0776,0.0843,0.088,0.0905,0.0933,0.0927,0.0915,0.0774,0.07,0.0459,0.0285,0.0122,0.0074,0.0004,-0.0004,-0.0005,0.0065,0.011,0.0103,0,0,0,0,0,0.0433,0.0499,0.0599,0.0714,0.0798,0.0849,0.0925,0.0944,0.0967,0.0953,0.0937,0.0816,0.0582,0.0481,0.032,0.0259,0.0032,0.0062,-0.0055,-0.0185,-0.0183,-0.013,0,0,0,0,0,0,0.0447,0.0538,0.06,0.0702,0.0774,0.0857,0.091,0.093,0.0919,0.0926,0.081,0.0763,0.0539,0.0678,0.0314,0.0265,0.0164,-0.0041,-0.0045,-0.0186,-0.0184,-0.0183,-0.0128,0,0,0,0,0]}]]